This is the latest recevied weather packets stored in our database for station/object EA5GTE-12. If no packets are shown the sender has not sent any weather packets the latest 10 day(s).
| Time | Temp. | Humidity | Pressure | Rain* | Wind** | Luminosity | Snow |
|---|---|---|---|---|---|---|---|
| 1777803736 | 14.44° C | 100% | 937.6 hPa | - | - | - | - |
| 1777802836 | 15.56° C | 100% | 937.6 hPa | - | - | - | - |
| 1777801936 | 18.33° C | 100% | 937.7 hPa | - | - | - | - |
| 1777801036 | 22.22° C | 78% | 937.6 hPa | - | - | - | - |
| 1777800136 | 18.89° C | 100% | 937.8 hPa | - | - | - | - |
| 1777799236 | 19.44° C | 100% | 937.9 hPa | - | - | - | - |
| 1777798336 | 18.33° C | 100% | 938 hPa | - | - | - | - |
| 1777797436 | 17.22° C | 100% | 938 hPa | - | - | - | - |
| 1777796536 | 17.22° C | 100% | 937.9 hPa | - | - | - | - |
| 1777795636 | 18.33° C | 100% | 937.8 hPa | - | - | - | - |
| 1777794736 | 16.67° C | 100% | 937.9 hPa | - | - | - | - |
| 1777793836 | 16.67° C | 100% | 938.2 hPa | - | - | - | - |
| 1777792936 | 16.11° C | 100% | 938.1 hPa | - | - | - | - |
| 1777791136 | 15° C | 100% | 938 hPa | - | - | - | - |
| 1777790236 | 15° C | 100% | 937.9 hPa | - | - | - | - |
| 1777789336 | 15° C | 100% | 937.9 hPa | - | - | - | - |
| 1777788436 | 14.44° C | 100% | 937.9 hPa | - | - | - | - |
| 1777787536 | 13.33° C | 100% | 938 hPa | - | - | - | - |
| 1777786636 | 13.33° C | 100% | 938 hPa | - | - | - | - |
| 1777785736 | 13.33° C | 100% | 937.9 hPa | - | - | - | - |
| 1777784836 | 13.33° C | 100% | 938 hPa | - | - | - | - |
| 1777783935 | 13.33° C | 100% | 938 hPa | - | - | - | - |
| 1777783035 | 13.33° C | 100% | 938 hPa | - | - | - | - |
| 1777782135 | 12.78° C | 100% | 937.8 hPa | - | - | - | - |
| 1777781235 | 13.33° C | 100% | 938.1 hPa | - | - | - | - |
* Rain since midnight (hover to see other rain measurements)
** Current wind speed in m/s (hover to see current wind gust speed)